星链-1916 (STARLINK-1916 )

导读 | 豆包AI

STARLINK-1916是美国太空探索技术公司SpaceX星链星座中的一颗互联网通信卫星,于2020年10月24日发射升空,运行在近地轨道。作为星链网络的组成部分,它承担着为全球偏远地区等提供高速宽带互联网接入服务的任务,助力星链实现全球覆盖,推动太空互联网基础设施建设。

Basic Information
目录编号:
46766
目录名称:
STARLINK-1916
国际标识:
2020-074AD
轨道中心:
EARTH
卫星名称:
星链-1916
卫星全名:
星链-1916 (STARLINK-1916 )
卫星状态:
已陨落 最后检测时间 2025-04-18
发射日期:
2020-10-24 UTC
国别 :
美国 (US)
星等 :
--
Orbit Information
数据来源 国际轨道数据
星历时间: 2025-04-18T08:48:41+0800
轨道信息已过期330天
半长轴: 6531.027km
偏心率: 0.0009108
轨道倾角: 53.033°
近地点辐角 299.794°
升交点赤经 319.142°
平近点角 193.102°
近地点: 146.943km
远地点: 158.841km
周期: 87.545分钟
每日圈数: 16.448663
Detailed Information
固有亮度:
5
最大亮度:
2.5
卫星平台:
Starlink V1.0
覆盖范围:
全球
运营商:
太空探索技术公司
运营商所在国:
美国
制造商(研发单位):
太空探索技术公司
制造商所在国:
美国
使用方式:
暂无
Satellite Introduction
星链(Starlink)计划是由太空探索技术公司(SpaceX)提出的一个巨型低轨卫星互联网星座项目,计划在2019年至2024年间在太空搭建由约1.2万颗卫星组成的“星链”网络,其中1584颗将部署在地球上空550千米处的近地轨道,并从2020年开始工作。该卫星仍在工作。